Location: Epalinges
(46.5518°N, 6.6683°E)
Time: 15:01:14
(UTC+00:00)

SL-16 R/B - Pass Details

Date: 20 June 2021
Orbit: 842 x 847 km, 71.0° (Epoch: 03 August)

Event Time Altitude Azimuth Distance (km) Brightness Sun altitude
Exits shadow 00:20:16 20° 242° (WSW) 1,868 3.6 -19.3°
Maximum altitude 00:23:53 44° 304° (NW) 1,163 3.1 -19.1°
Drops below altitude 10° 00:29:18 10° 16° (NNE) 2,473 5.9 -18.9°
Sets 00:31:53 0° 24° (NNE) 3,411 6.9 -18.8°
